Theta_e
348 351 352 352 353 351 350 351 350 349 348 348 349 350 350 352 351 351 354 353 355 352 354 358 359 358 358 363 353 358 366 361 362 367 369 367 366 363 360 358 359 358 357 355 360 362 365 363 364 364 364 358 357 353 353 356 359 356 359 359 359 358 356 352 349 348 353 358 357 357 359 358 355 357 355 355 358 359 359 364 365 361 359 359 356
346 349 351 351 350 350 350 350 350 350 348 348 349 350 349 350 353 353 352 353 355 353 357 354 354 358 356 358 360 363 362 365 360 360 364 366 364 362 360 359 358 356 355 354 355 360 362 361 363 360 358 352 357 355 357 358 354 361 360 357 358 357 356 355 352 348 347 355 354 356 356 356 353 357 355 356 356 358 356 356 359 359 359 361 362
347 350 349 348 349 348 349 350 349 349 349 348 347 348 350 350 353 351 350 351 353 354 355 353 357 357 355 356 358 358 361 362 363 366 366 365 365 363 362 359 358 356 354 355 356 358 356 358 354 353 355 356 358 358 355 355 355 356 358 358 357 354 354 355 351 349 348 350 355 353 353 352 353 352 355 357 361 357 357 353 352 356 357 359 361
362 353 352 349 346 346 348 348 347 347 346 347 347 347 348 349 351 351 351 349 349 352 355 354 356 360 356 355 358 357 362 362 360 361 364 363 365 363 360 359 357 355 355 357 359 358 356 352 351 355 355 354 357 357 357 356 356 356 355 357 355 349 348 350 354 349 348 346 350 348 349 351 353 355 356 355 353 356 355 350 352 355 353 356 358
361 366 352 350 348 348 344 345 346 346 345 345 346 347 347 346 348 349 349 348 349 350 354 355 355 354 348 350 355 361 360 362 362 360 362 365 366 362 361 360 360 360 362 363 360 353 349 349 352 353 355 353 355 355 356 354 354 354 355 354 353 351 348 348 353 352 348 346 346 349 350 350 353 356 353 350 352 348 350 348 347 349 347 344 341
361 361 363 354 354 353 349 346 346 347 347 346 345 346 346 346 346 347 347 348 350 347 348 348 348 353 353 353 353 358 360 359 361 361 359 361 364 363 363 362 361 361 360 358 352 349 348 348 352 352 352 352 353 355 355 354 353 353 352 352 352 349 349 351 351 348 347 346 346 345 349 346 349 352 341 345 342 341 343 344 347 348 342 336 332
363 359 360 360 355 355 353 354 350 348 351 346 346 347 345 345 345 345 347 349 348 346 346 348 351 350 356 356 358 361 361 361 364 364 364 364 364 363 360 358 357 356 357 353 349 348 348 349 350 355 355 355 354 353 353 352 351 351 352 352 352 351 348 348 347 346 347 345 344 347 343 342 338 335 338 342 341 340 339 341 340 344 341 333 330
360 360 363 363 361 355 352 352 357 361 359 355 354 349 345 344 346 347 349 348 346 347 346 344 345 347 354 352 359 362 363 361 362 363 364 365 364 361 358 354 354 355 353 351 352 352 352 350 353 353 354 353 352 352 351 350 349 346 347 350 350 349 348 346 344 346 344 341 339 337 335 334 334 335 336 337 335 338 339 339 337 337 341 335 328
361 361 364 363 361 361 358 354 357 360 366 367 355 361 366 361 361 354 352 349 346 346 347 345 347 346 347 355 362 362 363 363 361 361 364 365 363 358 356 354 353 353 354 351 349 350 352 354 352 353 355 355 353 352 352 350 346 344 346 347 348 347 345 345 343 340 339 338 337 336 333 330 331 331 331 331 332 332 338 339 337 337 337 339 334
364 362 362 363 367 369 370 367 366 367 367 368 366 361 365 366 364 367 358 362 363 359 357 354 347 344 352 358 361 360 355 350 347 346 347 352 357 357 355 353 353 352 352 353 351 352 352 352 352 358 355 353 353 352 347 346 345 345 344 344 345 343 341 340 339 338 335 333 333 330 328 327 328 329 329 331 333 334 334 334 334 335 337 336 339
363 363 361 364 367 368 365 364 363 361 360 364 364 366 366 367 367 364 363 358 362 368 357 355 355 357 356 357 357 354 347 343 338 335 338 342 352 356 354 352 349 351 351 350 348 351 350 349 350 352 350 350 348 347 344 346 345 344 344 345 345 342 340 336 335 335 332 329 329 328 327 326 327 329 329 330 331 330 331 333 333 333 331 330 328
354 348 349 351 356 361 361 361 359 358 359 361 364 368 367 366 368 366 363 358 365 364 364 362 357 357 356 354 350 344 340 335 331 333 337 337 344 354 355 354 354 354 351 351 349 347 346 346 347 346 343 342 340 340 343 344 341 342 341 340 339 339 339 337 333 330 329 326 325 325 325 325 326 328 328 329 330 331 331 331 330 329 328 328 330
349 349 349 350 350 356 358 357 357 357 356 354 351 356 351 352 362 364 364 364 365 363 366 363 362 355 353 351 347 344 340 332 332 334 336 336 339 355 354 353 350 348 348 347 347 346 346 344 342 341 340 341 338 336 335 336 339 340 341 340 338 336 328 329 332 331 329 326 324 323 324 324 323 323 326 327 330 329 329 329 327 328 329 328 328
348 349 349 351 353 355 354 353 354 354 355 352 352 352 350 346 347 347 357 364 362 363 363 364 363 360 355 352 346 343 341 335 333 334 336 340 346 351 348 346 346 345 345 344 344 343 343 341 338 335 336 336 335 334 333 331 331 330 330 330 331 334 336 334 331 331 328 325 322 320 322 324 321 322 325 328 326 327 328 325 323 325 327 327 331
342 343 345 346 349 353 351 350 350 352 355 350 348 347 347 345 343 345 343 349 350 348 344 346 356 357 354 346 343 341 340 329 332 336 336 336 339 346 345 344 343 343 344 343 342 341 340 339 339 338 337 336 336 334 331 329 328 327 325 325 325 326 327 328 328 328 328 326 323 322 322 323 322 322 323 325 324 326 327 324 322 325 327 329 331
337 341 345 345 348 350 352 351 351 354 352 348 346 346 347 344 343 345 344 346 350 347 348 353 349 348 347 346 343 340 337 328 333 334 334 336 341 344 343 341 340 340 340 340 340 339 338 337 336 336 336 336 336 336 335 333 330 327 326 325 324 325 326 331 327 330 331 328 326 323 321 324 326 327 327 323 324 325 327 322 320 319 321 318 316
344 343 342 347 349 349 351 351 350 348 348 346 345 347 345 342 345 346 343 345 346 347 347 347 348 346 345 343 341 340 338 327 325 327 330 333 339 341 340 339 338 337 336 337 338 339 337 337 337 336 337 338 337 331 335 335 333 331 329 328 327 325 324 326 326 325 325 323 322 323 322 322 321 320 319 320 327 326 323 317 313 316 317 314 315
344 342 342 346 348 349 350 349 348 348 346 345 346 345 342 341 344 345 343 343 342 343 344 344 345 344 342 340 340 337 335 327 320 321 325 330 339 339 337 336 335 334 333 332 333 336 340 342 339 334 332 329 323 325 333 336 332 332 330 328 328 327 326 326 327 327 326 325 325 325 326 325 328 327 323 320 322 326 318 313 314 316 315 314 312
344 344 345 344 343 346 348 347 347 345 345 345 344 343 342 341 342 342 342 341 341 341 341 339 339 339 339 338 338 335 333 329 318 320 324 328 335 337 336 334 332 331 330 329 330 328 327 330 332 328 324 321 317 320 327 336 332 330 328 327 325 324 326 329 329 329 329 329 329 330 331 326 324 323 323 323 324 324 320 316 316 315 314 315 315
346 345 345 346 346 346 347 346 346 344 340 340 340 339 339 337 337 338 338 339 338 337 337 336 334 334 335 335 335 334 332 332 327 320 321 324 329 336 334 332 330 330 330 329 327 326 324 322 321 316 315 314 313 314 316 321 325 325 325 325 325 323 326 328 330 328 325 323 322 324 325 323 319 320 318 317 319 323 320 318 317 317 315 314 315
346 346 344 345 344 343 344 344 342 340 339 338 337 336 335 334 334 334 334 334 334 333 333 332 331 331 333 333 333 333 332 330 326 319 319 322 326 332 333 333 332 330 328 327 325 323 321 320 319 316 312 311 311 311 312 316 323 323 322 322 325 326 327 325 327 324 324 325 323 321 320 319 317 317 319 319 317 315 316 318 317 316 316 316 314
344 345 344 341 339 339 339 339 340 340 338 337 335 334 334 333 332 332 333 333 331 330 330 330 330 330 331 332 332 332 334 333 329 319 317 316 321 327 334 333 332 329 326 325 323 321 321 320 319 315 311 310 309 309 310 313 318 323 318 313 316 322 326 328 326 325 323 321 319 318 317 315 314 315 318 318 316 315 315 315 317 317 320 319 319
342 342 340 338 337 336 337 337 337 337 337 336 333 331 332 332 332 333 331 330 329 328 329 329 329 330 331 331 331 331 331 331 327 325 317 315 316 319 322 327 324 330 324 321 319 320 320 320 319 316 308 306 307 308 310 313 320 316 312 314 317 322 326 324 325 323 321 320 319 318 317 315 314 314 316 316 316 317 315 317 318 318 320 321 321
342 340 338 337 336 337 337 337 336 336 336 334 333 331 331 333 333 333 332 331 329 330 331 331 330 330 329 329 328 328 328 327 324 323 321 315 314 315 317 319 322 325 325 322 321 320 319 316 314 306 304 303 305 308 310 317 316 309 313 318 321 325 323 322 321 321 321 319 318 317 316 316 315 316 317 318 317 317 316 316 317 318 318 318 319
340 338 337 337 336 336 336 336 335 334 334 333 332 332 331 333 332 333 334 333 333 331 330 330 329 329 329 327 326 326 326 324 322 320 318 316 314 313 315 316 317 318 323 322 321 318 313 307 305 306 307 307 309 311 313 314 312 312 314 318 321 319 321 319 320 320 317 316 314 314 314 316 315 318 322 321 323 320 317 317 318 318 318 318 318
339 338 337 336 336 336 335 335 335 334 333 333 332 332 333 333 332 334 335 334 332 330 329 329 329 328 328 328 327 326 326 326 325 324 324 321 317 313 314 316 319 319 320 317 315 311 309 309 309 310 313 318 325 323 323 322 319 321 321 322 319 318 317 317 317 317 315 313 314 313 313 317 317 318 324 322 321 316 316 316 314 314 315 315 315
339 339 337 336 336 335 334 333 333 333 333 333 333 334 334 333 333 334 334 332 330 329 329 329 329 328 328 328 328 328 327 326 326 326 324 322 321 320 318 317 315 316 318 317 317 316 316 317 317 317 318 321 326 325 324 325 326 318 315 315 316 318 319 317 316 317 318 316 315 315 316 317 318 318 319 315 317 317 315 317 313 312 314 313 316
337 337 336 336 335 332 330 334 332 329 329 329 332 333 334 333 332 333 332 331 329 329 329 329 329 329 328 328 328 328 327 327 327 327 325 323 320 319 320 320 319 320 319 321 321 321 322 324 320 326 327 324 322 322 319 321 319 317 314 313 313 316 318 318 316 318 318 319 317 318 317 317 312 312 314 312 312 316 314 316 314 312 313 312 311
337 336 335 334 338 332 329 329 328 325 322 319 314 311 313 327 329 324 320 319 328 331 331 330 331 331 330 330 329 327 327 327 328 323 328 318 322 321 321 321 321 323 323 317 324 325 324 319 319 319 319 319 320 316 315 315 316 316 313 313 312 312 313 313 314 315 315 317 313 313 313 312 312 312 314 311 313 315 314 315 315 312 313 312 308
337 336 332 335 332 330 328 326 326 325 323 321 319 315 310 301 306 322 322 316 309 305 318 332 331 331 331 333 332 328 326 327 314 309 308 308 310 313 314 311 312 319 317 314 322 320 319 318 321 322 321 320 315 316 313 314 315 313 313 316 312 310 311 312 311 312 313 315 313 310 312 311 310 311 312 310 310 312 312 313 312 311 310 307 306
337 335 331 331 329 328 327 327 327 328 326 325 325 323 320 315 300 300 307 309 305 303 306 309 314 319 327 322 317 312 310 306 303 300 299 298 298 300 301 302 302 303 308 323 323 322 322 323 319 320 321 316 315 315 316 314 315 314 312 312 311 311 312 311 311 313 314 312 311 310 312 310 309 310 311 310 309 310 310 312 310 309 307 306 305
335 325 325 328 331 331 328 330 329 329 329 329 329 327 325 322 318 305 300 303 303 301 302 304 305 308 311 314 316 312 305 301 299 299 299 299 299 298 298 300 301 302 303 311 323 331 326 323 319 317 317 314 315 316 313 313 314 312 312 312 311 312 312 311 312 311 312 310 308 309 311 310 308 310 311 310 309 308 307 308 307 306 306 305 305
328 330 332 330 329 329 328 330 330 330 329 330 330 330 328 325 322 320 315 303 301 299 299 301 302 303 304 304 306 306 303 299 299 298 298 298 298 299 299 299 301 302 308 321 327 327 321 321 318 319 315 314 314 314 315 312 312 312 314 314 312 313 313 314 314 312 313 312 309 308 310 310 309 309 311 309 308 307 307 306 306 306 305 303 303
336 333 330 330 330 329 328 329 329 330 331 331 330 329 329 329 327 326 324 324 322 312 305 300 299 299 299 299 299 298 299 299 299 299 299 300 301 303 308 316 303 301 312 327 326 324 326 320 316 316 317 316 314 315 317 316 314 314 314 313 312 315 317 316 313 311 312 312 308 308 310 309 309 307 308 308 308 308 305 305 304 303 303 302 302
336 333 332 331 330 328 327 328 328 329 329 330 330 329 330 332 331 330 328 326 324 322 320 316 305 300 307 302 298 298 299 299 299 300 300 301 302 303 308 325 323 323 320 325 331 323 318 317 316 316 316 316 317 319 318 317 315 314 313 314 313 312 317 313 311 313 312 314 309 309 310 311 309 308 308 306 305 304 304 303 303 303 302 302 302
332 332 332 330 331 329 329 330 329 330 330 329 330 329 330 329 329 330 328 328 325 323 321 318 314 306 299 296 296 297 298 298 298 299 300 300 301 307 324 326 324 328 322 323 322 321 320 319 319 319 319 319 323 321 324 318 316 315 315 315 314 313 313 312 312 312 312 312 310 311 309 310 308 307 306 305 305 304 303 303 303 303 303 302 303
329 329 330 333 333 330 330 331 333 333 332 329 328 328 328 328 329 329 329 327 325 324 321 320 319 318 316 315 307 298 296 296 297 297 298 299 300 319 326 324 325 322 322 320 321 321 320 319 321 320 322 322 324 324 317 315 318 317 315 317 318 316 312 312 314 313 312 311 311 311 310 308 308 308 305 304 304 304 304 304 303 304 303 304 304
330 328 329 333 334 333 332 331 329 330 332 330 333 331 329 329 329 329 328 327 326 324 323 323 323 321 320 318 320 316 310 302 302 304 305 305 316 320 322 324 327 322 321 322 324 323 320 322 324 325 321 323 323 318 316 315 315 313 315 320 318 315 312 314 312 314 313 312 309 311 310 308 307 308 306 304 303 304 304 304 302 302 303 304 303
333 330 328 329 330 330 329 327 328 328 328 328 327 328 327 326 327 328 328 328 326 325 324 324 323 322 322 322 322 320 318 318 318 317 318 319 321 321 321 326 326 322 322 323 322 323 322 321 323 324 324 321 317 316 316 316 316 315 319 317 315 315 314 311 310 311 312 311 310 310 312 308 308 308 305 304 303 304 304 303 303 302 301 301 302
327 328 327 328 327 327 327 327 327 327 326 325 325 326 326 326 325 326 325 326 326 326 325 324 324 324 324 325 323 321 319 318 318 319 318 319 320 322 325 326 326 321 321 321 321 322 321 320 319 319 321 324 320 317 319 322 318 317 318 315 314 312 314 310 310 310 311 312 308 308 310 308 310 310 305 305 306 305 305 304 304 304 303 302 302
327 327 328 326 325 327 325 324 324 325 326 326 325 325 325 326 327 326 325 326 326 326 325 325 325 326 326 323 314 314 321 320 321 321 321 322 322 323 325 327 323 322 320 321 321 321 322 319 321 321 323 321 316 319 317 318 319 320 313 317 313 312 311 309 309 310 311 309 309 307 311 309 308 310 303 306 305 305 307 306 304 303 303 303 302
326 326 326 325 328 325 322 321 323 327 328 328 326 326 326 326 326 325 325 324 324 324 324 324 325 327 319 310 306 305 322 323 322 322 322 323 324 325 326 325 326 327 322 321 323 323 320 321 319 319 320 316 317 320 320 315 315 316 313 311 310 309 308 308 308 309 308 308 309 310 308 307 307 311 306 304 306 305 305 303 303 303 302 302 302
329 326 324 326 324 325 322 321 325 325 326 326 325 327 327 327 325 327 323 324 323 323 323 322 326 326 322 311 312 308 322 325 323 324 323 323 324 325 325 323 323 327 328 324 323 322 326 320 321 324 316 317 317 317 318 315 319 316 312 311 309 308 309 308 308 308 308 309 308 309 308 306 308 307 306 306 305 305 303 303 303 302 302 302 301
327 324 324 326 325 327 325 324 324 325 324 328 328 327 326 326 326 326 323 324 323 323 322 322 326 325 324 317 314 316 322 325 325 324 325 324 324 323 323 323 323 323 322 322 322 322 322 319 319 315 317 315 317 317 315 313 315 313 315 311 307 307 309 308 308 308 308 308 308 307 307 308 309 308 305 305 305 303 303 303 302 302 301 301 301
326 323 320 324 324 327 326 328 326 327 326 327 327 326 328 325 324 325 324 324 323 323 322 323 325 325 323 322 321 320 321 323 325 325 325 324 324 324 323 324 325 324 320 321 322 322 321 321 317 315 316 315 316 317 314 313 313 312 310 311 310 307 307 308 308 308 308 307 307 308 307 306 305 305 303 304 305 304 302 302 302 301 301 301 301
328 325 322 323 323 325 326 325 326 328 327 325 324 323 324 324 326 325 323 324 324 324 324 326 326 325 323 323 322 321 321 323 324 325 324 325 324 324 325 323 322 321 321 321 321 322 323 320 316 315 316 316 315 314 312 313 312 312 312 311 310 309 309 309 309 309 308 308 308 309 307 305 305 305 305 305 305 304 303 303 303 302 302 301 301
329 329 324 324 323 324 327 329 327 326 326 325 326 325 325 324 325 325 324 325 324 325 325 327 327 325 325 323 323 322 322 322 323 324 325 325 326 326 323 321 321 320 321 321 322 320 319 318 317 317 316 315 316 315 312 312 311 310 311 309 307 305 306 309 310 309 308 308 307 310 306 304 306 306 305 304 304 303 304 302 302 302 302 301 301
326 325 326 327 326 323 323 325 325 328 326 325 325 324 325 325 325 325 325 325 325 324 324 326 326 326 324 324 322 322 322 322 323 324 324 325 325 324 321 321 320 320 321 320 319 318 317 317 318 317 316 316 315 314 315 313 311 310 307 305 304 303 301 302 307 305 304 305 306 306 306 307 305 304 303 304 304 303 302 301 302 301 302 301 301
324 323 323 325 325 325 324 322 323 323 324 324 324 324 324 323 323 324 325 324 324 324 325 324 326 326 325 325 322 321 322 322 323 324 323 324 324 322 321 320 320 320 319 318 317 318 318 317 317 317 315 316 317 314 313 312 309 306 303 302 300 297 296 297 300 303 299 305 305 305 306 307 306 305 306 305 303 303 302 303 302 302 301 302 301
324 324 323 322 322 323 326 325 324 325 325 325 324 324 324 324 323 323 324 324 324 324 324 325 324 324 324 323 322 322 322 321 322 322 322 322 321 321 321 322 322 320 319 317 315 315 316 317 317 316 315 315 314 314 312 311 308 304 303 301 295 294 295 296 296 296 300 302 302 303 304 305 305 305 306 305 304 303 303 302 302 302 301 301 302
325 323 323 322 322 322 323 324 325 325 326 325 324 324 324 323 323 321 322 324 323 323 323 324 325 324 323 323 322 322 322 323 323 322 321 321 321 320 320 319 318 319 319 318 316 316 316 316 314 315 314 313 312 312 313 309 306 304 299 295 293 290 290 295 303 294 291 293 302 303 303 305 304 304 304 305 304 303 303 302 303 302 301 301 302
Wind_Speed
14 12 11 11 12 13 13 12 13 11 12 11 10 10 9 9 10 8 7 6 5 8 7 6 5 5 3 3 6 6 4 5 3 3 3 3 4 4 4 4 4 1 2 4 4 4 3 3 3 3 3 5 6 6 3 4 2 2 3 1 1 2 2 2 2 4 3 2 3 3 3 6 4 5 5 5 4 3 2 5 1 3 3 3 2
13 11 10 11 12 13 13 13 12 11 12 12 12 11 11 9 7 8 12 10 8 8 6 7 7 7 7 6 2 3 4 4 6 4 4 4 4 4 4 3 2 1 1 2 3 4 5 5 4 7 7 9 3 4 3 5 4 3 1 2 2 1 1 1 2 2 3 2 2 3 3 6 5 6 5 6 5 3 6 5 4 5 3 1 0
11 9 10 10 13 12 12 12 12 13 13 11 12 12 10 10 7 8 7 8 8 7 7 9 5 4 7 8 7 6 5 6 5 3 2 3 3 3 4 4 2 2 2 3 2 2 4 5 9 8 5 3 4 3 6 7 5 4 3 2 4 4 4 2 1 2 2 2 1 2 5 5 4 5 5 3 2 3 3 4 7 2 1 2 0
0 9 10 10 13 13 12 11 13 13 13 11 12 12 11 10 10 9 10 8 9 8 9 7 4 5 5 5 9 7 5 4 5 4 4 4 4 4 4 4 3 2 4 5 3 1 5 8 5 5 4 7 6 4 3 4 5 5 5 6 4 3 2 5 2 1 1 2 4 5 3 3 2 2 3 3 3 3 2 6 7 3 1 1 2
3 2 10 10 10 9 12 12 12 13 13 12 13 12 12 11 9 9 10 9 7 7 5 7 7 8 9 6 4 8 6 3 1 2 4 4 4 4 4 3 3 3 3 2 3 10 8 3 7 4 6 4 4 5 5 7 6 5 5 4 3 2 2 4 3 1 3 3 2 1 2 2 1 2 4 4 2 4 4 7 8 7 5 7 7
4 3 3 8 8 8 9 10 11 10 11 12 12 12 11 10 10 10 10 8 7 8 9 9 8 6 5 5 5 5 6 6 7 6 5 4 4 3 3 3 3 2 2 5 10 4 3 2 4 2 2 2 3 4 5 6 6 6 5 4 3 2 3 4 2 3 3 2 3 3 3 4 4 6 9 7 7 7 6 7 6 6 5 7 7
5 6 4 6 8 7 7 6 7 9 9 10 9 9 10 11 11 10 9 7 7 8 8 6 4 5 4 4 1 5 5 5 4 2 2 3 3 4 3 3 2 2 4 7 7 4 2 2 1 2 2 4 5 5 5 6 5 6 7 6 4 4 4 3 5 2 2 3 4 4 5 7 7 7 7 7 7 7 6 6 6 5 6 6 5
9 6 6 5 4 8 8 7 5 4 4 7 6 7 9 9 8 7 5 7 8 8 8 8 7 6 3 4 6 7 5 4 3 2 2 2 3 3 4 4 4 3 4 4 3 4 2 1 2 6 5 5 5 5 5 5 6 6 5 5 4 3 3 3 3 1 5 7 6 6 6 6 6 5 6 7 8 7 7 5 5 6 4 5 6
9 7 6 6 6 6 7 7 6 5 3 3 6 4 2 3 4 4 5 6 8 8 7 7 5 6 7 3 8 6 4 4 3 3 1 3 3 4 5 5 4 2 4 3 5 5 3 4 4 4 10 17 19 16 13 9 4 4 5 5 5 6 6 5 5 5 7 7 6 6 6 7 7 7 7 8 9 8 7 7 6 6 5 4 4
7 7 6 6 6 4 2 3 1 2 3 2 3 4 1 2 3 2 3 1 2 3 3 3 4 6 7 11 7 6 5 4 6 8 7 4 3 3 5 4 3 4 5 3 4 5 5 5 8 18 18 19 19 18 18 17 16 10 5 5 5 6 7 7 6 6 7 8 7 6 8 8 8 7 7 7 6 6 7 7 6 6 5 4 2
7 6 4 4 5 3 2 1 1 1 2 3 1 1 2 1 2 2 2 3 2 2 2 1 1 6 10 8 9 7 5 5 8 8 9 11 6 4 4 5 4 3 5 5 6 6 7 6 6 12 14 15 14 18 18 20 19 19 20 19 15 8 6 8 7 7 7 8 7 8 8 8 8 7 8 8 8 8 7 5 6 6 6 6 4
4 10 8 8 6 1 2 2 2 1 0 2 3 2 2 1 1 1 1 3 2 2 3 2 1 8 6 9 9 7 6 6 7 7 8 7 4 2 5 5 6 6 8 7 6 6 6 8 8 7 7 8 8 9 15 18 17 20 21 21 22 22 17 9 8 8 8 8 8 8 7 7 7 7 8 7 7 6 7 6 6 6 6 6 5
9 4 7 6 9 5 4 4 3 2 1 1 3 6 9 10 6 2 3 3 3 2 2 3 3 10 9 9 8 7 6 5 6 6 4 2 3 6 8 7 7 7 7 7 6 6 7 8 7 6 7 13 9 7 6 8 15 17 18 20 21 20 17 19 16 10 7 8 8 9 7 5 6 6 7 6 6 6 7 7 7 7 6 5 6
5 1 2 3 4 4 5 3 3 4 3 3 4 5 3 3 3 10 10 4 3 0 3 5 4 8 8 8 8 7 6 4 7 6 3 5 12 11 10 10 8 8 7 8 7 8 8 8 8 7 6 7 7 7 6 8 8 9 9 9 9 13 15 16 16 16 13 8 8 8 6 6 6 5 6 6 7 6 6 7 7 7 7 7 4
2 4 7 7 5 4 4 4 4 4 5 6 2 1 4 4 6 3 5 6 4 6 9 7 3 6 9 10 8 7 4 6 7 8 12 15 14 11 9 9 8 8 8 8 8 9 8 8 8 7 7 6 6 8 8 9 9 9 10 10 10 9 9 9 8 7 6 6 8 7 6 5 5 5 5 5 6 5 5 5 6 6 5 4 3
8 9 9 8 5 4 4 4 4 3 5 8 7 5 5 5 4 6 4 1 1 7 7 5 6 7 8 9 9 8 5 6 6 4 11 15 15 9 9 9 8 7 8 8 8 7 8 8 8 8 7 7 8 12 11 7 7 9 9 9 8 8 8 8 10 8 7 6 5 5 4 5 5 5 5 6 5 6 6 4 5 8 7 7 7
8 6 5 5 6 7 6 4 2 2 4 7 7 4 4 3 4 6 4 2 2 5 7 7 6 7 8 8 10 9 6 5 7 7 8 13 11 9 10 9 9 10 8 7 6 6 8 8 8 8 7 4 4 6 9 8 5 6 7 8 6 6 5 4 9 11 11 9 9 8 5 5 6 9 12 13 9 6 5 7 9 7 7 7 7
6 5 6 4 2 3 2 2 1 2 5 6 7 6 5 4 1 7 8 5 4 6 7 8 7 6 8 9 9 8 6 5 9 10 12 12 9 9 9 10 10 9 8 7 7 8 11 17 10 7 6 5 7 7 5 8 5 5 6 6 7 6 5 6 4 3 4 7 7 7 5 4 3 7 15 15 14 11 8 8 7 6 7 7 7
4 3 3 3 2 2 2 0 3 2 3 5 8 7 6 6 4 7 7 5 5 7 8 9 8 8 8 10 12 11 7 6 11 13 15 14 10 7 8 10 10 8 8 9 8 8 9 11 16 10 8 10 15 14 9 5 5 6 7 7 8 8 7 5 3 3 2 3 2 1 1 3 7 6 9 16 16 12 7 7 6 7 7 7 7
5 6 7 7 5 4 4 4 5 6 7 6 6 7 7 7 6 7 6 5 5 7 8 9 10 8 7 7 8 9 10 7 10 16 15 15 12 8 8 10 11 10 9 8 8 8 8 8 9 13 15 15 15 16 17 16 11 10 8 6 6 7 5 4 5 4 4 5 5 5 5 5 6 6 5 8 9 9 7 7 6 6 6 5 6
6 6 6 5 4 6 5 5 7 8 8 7 7 7 7 7 7 7 8 8 8 8 9 9 11 9 8 7 8 7 7 10 9 13 15 15 13 10 8 10 9 9 9 9 8 7 7 6 5 12 15 15 16 18 18 16 13 9 8 7 7 8 8 5 7 11 5 5 5 6 6 6 6 6 6 5 8 8 8 7 7 6 5 5 5
8 8 10 10 9 9 9 9 8 7 6 7 6 7 7 7 7 7 7 9 11 11 10 9 10 10 8 8 9 8 9 12 8 11 13 13 12 11 9 9 9 10 10 9 8 7 7 6 4 10 16 15 16 16 16 15 14 9 10 12 12 11 7 6 5 5 5 6 6 6 6 6 6 6 6 6 7 8 7 7 7 7 5 4 5
9 9 9 9 9 8 9 9 7 6 6 7 9 9 8 8 9 9 9 10 12 11 11 10 11 11 9 8 7 8 8 9 13 11 14 15 16 14 13 11 11 9 10 10 9 8 7 7 7 14 15 16 16 15 13 14 9 8 14 16 15 13 10 6 6 6 6 6 6 6 6 6 6 6 5 6 6 6 7 6 7 6 6 5 5
8 9 8 8 9 9 9 10 10 9 8 8 9 9 9 9 8 9 9 10 11 11 10 9 10 11 10 8 8 8 7 6 10 12 12 15 15 15 14 14 12 10 10 9 8 8 8 7 9 16 16 16 15 14 13 11 11 15 13 13 13 10 6 6 5 5 5 5 5 5 5 4 5 4 4 4 5 6 6 6 6 6 6 6 7
8 9 9 9 9 9 9 9 9 9 9 10 10 8 9 7 7 7 9 10 10 11 9 9 10 10 9 8 8 7 7 6 6 11 16 15 15 16 16 16 14 13 11 9 8 8 11 14 15 14 14 13 13 12 12 12 13 11 13 13 12 6 6 6 6 5 6 6 6 6 5 5 5 4 3 3 3 4 4 5 6 5 7 6 8
8 9 10 9 10 10 10 10 9 9 10 9 10 10 9 8 9 7 7 8 8 9 8 9 9 9 10 9 8 8 7 7 7 8 10 12 12 17 17 16 15 15 14 13 15 16 14 14 15 13 10 8 6 5 5 7 12 13 13 11 5 6 6 6 5 6 6 6 5 5 5 4 4 4 2 3 2 5 4 5 6 6 6 7 7
8 8 9 10 10 10 11 9 9 9 10 10 9 8 8 11 9 5 5 7 9 9 9 10 10 9 10 10 10 9 9 9 8 8 9 9 8 10 12 13 15 14 10 8 7 7 9 8 6 7 7 10 9 9 8 6 6 8 6 6 5 4 5 6 6 5 5 4 4 4 4 3 4 4 4 6 5 5 5 5 5 6 6 6 5
11 11 11 9 9 9 9 12 10 8 8 7 7 8 10 10 8 6 6 8 8 8 9 10 11 11 11 11 10 9 10 9 8 8 9 9 9 10 9 9 8 7 7 7 6 7 5 4 4 4 5 5 5 5 4 5 6 5 6 6 7 7 8 9 7 3 3 3 4 4 4 5 5 5 4 5 5 4 5 4 5 6 5 6 5
10 13 12 9 8 9 9 9 8 8 9 9 8 6 5 5 5 4 4 4 1 8 10 9 10 11 10 10 10 10 9 9 7 6 10 11 11 9 9 8 7 6 7 9 5 4 3 5 5 5 4 5 6 8 7 6 6 6 9 7 6 6 6 5 5 5 5 4 5 5 5 5 5 5 4 5 5 4 4 4 5 6 5 5 6
6 7 8 7 7 9 9 8 8 8 8 8 8 9 14 13 9 4 3 5 2 4 1 8 12 11 10 8 7 8 8 7 12 17 16 14 12 11 9 9 8 7 9 10 6 6 5 5 6 5 4 3 6 5 5 5 5 7 7 7 7 7 6 5 5 5 5 4 5 5 4 5 4 5 4 5 5 5 6 6 6 6 6 6 6
4 7 9 8 9 10 10 10 8 6 7 8 8 9 7 9 15 15 11 7 9 14 18 19 18 14 11 7 11 17 14 14 16 13 12 11 12 13 13 11 13 12 8 3 0 4 7 4 4 4 3 5 6 6 5 7 4 5 7 7 7 7 6 5 6 4 3 4 5 5 4 5 5 5 4 5 5 5 5 5 6 6 6 7 7
4 7 8 9 10 8 8 8 9 8 7 7 8 8 8 9 10 15 14 14 17 17 17 18 18 18 17 16 11 7 11 14 14 14 13 14 14 14 14 14 12 10 5 5 2 3 4 4 6 5 5 6 5 6 6 6 6 6 5 6 6 5 5 5 5 6 4 5 6 5 4 5 5 4 4 5 5 5 6 5 5 6 7 7 7
9 7 7 8 9 10 9 8 8 8 8 8 8 7 8 9 10 9 10 17 20 19 18 16 17 17 17 16 16 14 12 13 15 14 13 14 15 14 13 11 8 4 4 2 4 2 5 5 4 3 6 7 6 5 5 6 6 5 4 5 5 5 5 5 5 5 4 5 5 4 4 5 5 5 4 5 5 5 5 5 5 5 5 6 6
8 7 7 7 7 7 7 7 7 7 7 7 7 8 8 8 9 9 9 9 12 15 17 17 15 17 15 17 18 16 15 15 14 14 14 14 14 13 11 5 3 2 3 2 3 3 2 3 7 5 6 7 6 5 4 5 6 5 5 5 6 4 4 4 4 5 4 4 5 4 4 4 4 5 4 4 4 4 5 5 5 6 6 6 6
7 10 14 9 6 7 7 7 7 7 8 7 7 7 8 8 8 7 8 9 9 8 7 8 11 12 11 10 14 16 15 14 14 13 13 13 12 11 8 4 3 3 3 4 0 5 7 8 8 8 7 6 5 4 4 4 6 5 4 4 4 4 3 5 4 3 4 3 5 4 4 3 3 4 3 5 5 5 5 5 5 5 5 6 6
8 7 7 9 7 6 5 5 6 7 7 7 7 8 8 7 7 8 9 9 9 9 8 6 6 7 14 13 13 13 13 11 11 10 10 11 10 8 5 4 2 1 4 5 6 7 7 6 6 6 5 4 2 3 0 5 6 5 4 3 3 3 3 4 3 3 4 3 4 4 4 4 5 4 4 6 6 5 5 5 5 5 5 4 5
8 8 7 5 6 6 6 6 5 5 6 7 7 8 7 7 7 9 9 9 9 9 8 7 7 7 8 7 10 11 11 10 9 9 8 6 5 2 0 2 2 4 4 5 4 4 5 6 5 4 3 3 1 2 6 5 4 5 5 3 2 2 4 4 2 2 3 3 4 2 3 3 3 3 5 4 4 4 4 5 5 6 5 6 5
8 7 6 6 6 7 6 5 6 7 6 6 6 6 7 7 8 8 9 9 10 10 9 8 8 8 7 5 5 5 6 7 9 7 5 4 2 1 3 4 2 4 5 4 4 4 5 4 3 3 2 2 2 4 5 6 5 4 3 1 5 4 4 5 4 2 2 3 3 2 2 4 5 3 4 5 4 4 3 4 4 4 4 6 4
6 10 13 11 7 6 6 6 6 6 6 6 6 6 7 7 8 8 9 9 9 9 9 9 9 8 7 7 6 7 7 5 5 5 4 3 3 3 3 4 3 5 5 4 5 4 4 4 3 3 3 4 7 5 4 4 4 3 0 1 3 4 4 4 4 3 3 3 3 3 2 4 3 4 6 4 4 4 3 4 3 4 4 4 4
8 7 8 10 5 6 5 6 5 5 6 6 6 6 6 7 7 7 8 10 10 9 9 9 9 8 8 8 8 7 7 7 6 5 5 4 4 4 4 3 4 6 5 4 4 4 3 5 5 4 2 0 4 4 3 0 3 4 3 3 3 3 3 5 4 3 3 2 4 4 3 3 2 2 4 4 3 3 3 3 3 3 4 5 5
6 6 6 5 6 6 6 5 5 5 5 5 5 5 6 6 6 8 8 9 9 9 9 9 8 9 9 9 11 10 6 7 6 6 6 6 5 5 4 3 3 5 6 5 5 4 4 5 4 4 3 3 5 4 3 2 1 0 5 2 4 3 2 5 3 2 1 3 2 4 1 2 3 2 4 1 3 3 3 3 3 4 4 4 5
7 7 6 4 6 6 5 5 5 5 4 4 5 5 6 5 6 7 7 8 8 8 8 7 7 9 12 17 14 13 6 6 6 6 6 6 5 4 3 4 4 3 4 5 5 4 5 4 4 4 3 4 3 3 2 3 1 2 3 3 4 3 2 3 3 1 1 1 2 2 3 2 4 0 4 3 3 3 3 4 3 3 4 5 5
8 7 5 5 5 5 6 5 5 5 5 5 5 5 6 5 7 6 7 7 8 7 7 7 8 9 10 15 15 14 6 5 5 5 6 5 4 4 4 6 5 4 3 6 6 5 3 4 3 2 5 5 6 3 2 4 2 2 3 4 4 2 2 2 2 2 2 2 1 2 2 1 3 3 4 2 3 3 3 4 4 4 5 5 5
7 6 5 5 5 4 5 5 6 5 5 5 6 3 5 5 5 5 7 7 9 7 8 7 8 9 9 10 11 9 6 4 3 4 4 5 6 6 5 5 5 5 6 5 5 4 3 3 2 7 5 6 4 4 4 4 3 3 3 3 4 2 2 2 2 2 2 2 2 2 2 3 2 2 4 4 3 3 3 4 4 5 4 4 5
8 6 7 6 6 5 6 5 5 6 6 4 5 4 4 5 4 4 7 7 7 7 8 9 9 9 9 8 8 8 8 6 5 5 5 5 5 4 4 5 5 6 6 5 5 5 3 4 5 6 5 5 4 2 4 4 4 4 3 3 3 3 3 3 3 2 0 2 2 2 2 2 3 4 4 3 3 3 3 3 3 4 4 4 4
8 8 7 7 7 5 6 7 6 6 7 7 6 7 6 6 5 5 5 5 7 8 6 6 9 9 9 9 9 9 9 7 6 5 5 6 4 4 4 6 7 7 5 4 4 3 3 4 5 5 4 5 4 4 4 4 3 3 4 3 4 4 3 3 1 1 2 1 2 2 2 3 3 3 2 3 2 2 3 3 3 4 4 4 5
6 7 8 8 7 6 6 5 7 6 7 8 8 8 8 8 8 7 7 6 6 5 6 9 9 10 9 9 9 9 8 8 7 7 6 6 5 4 5 6 7 6 6 6 4 3 4 5 5 4 5 5 4 5 4 4 4 3 3 5 6 6 5 4 2 2 1 4 4 2 1 3 2 2 3 3 2 2 2 2 3 4 4 4 4
5 5 7 8 8 8 7 6 7 7 6 6 7 7 9 9 8 8 7 6 7 7 6 8 8 9 9 9 9 9 8 8 8 6 6 5 4 5 8 7 6 4 3 5 5 4 4 4 4 4 5 6 4 3 4 4 4 6 6 5 5 5 6 6 4 5 5 3 4 5 4 2 2 3 4 3 3 2 3 3 3 3 4 4 5
6 7 6 6 7 8 8 8 7 8 7 6 6 7 6 7 9 8 9 8 7 7 6 7 10 9 9 8 8 8 8 8 5 6 5 4 4 6 8 7 7 6 6 5 5 5 6 5 4 4 6 5 3 3 3 4 6 7 6 5 6 10 11 9 5 4 5 4 4 5 5 1 2 3 1 2 3 3 3 3 3 4 4 4 5
6 5 6 6 6 5 7 7 8 7 7 7 7 8 7 7 6 7 9 9 8 7 7 6 6 8 6 8 9 8 7 7 5 6 5 4 4 5 7 6 6 6 5 5 6 7 5 5 5 5 5 4 5 4 3 3 7 8 6 7 10 10 9 8 7 7 6 4 4 5 7 4 4 2 1 1 2 3 3 3 3 3 4 5 4
7 6 6 6 6 6 6 6 7 8 8 8 8 8 8 8 8 7 7 7 8 8 7 6 5 8 8 7 7 6 6 6 6 6 6 5 5 5 7 6 5 5 5 7 6 7 6 6 6 6 6 7 6 5 3 9 8 8 10 12 11 9 7 5 4 4 5 3 4 5 6 3 3 2 2 2 2 2 3 4 3 4 4 4 3
Wind_Direction
190 194 196 199 196 193 196 197 205 204 204 203 208 205 206 208 205 188 185 211 224 191 198 187 211 193 187 239 186 203 183 174 180 168 183 163 140 150 145 142 177 167 47 317 298 297 284 269 282 309 309 318 5 37 289 295 195 82 94 198 155 148 160 172 251 282 289 20 6 319 13 2 24 2 10 358 18 18 116 169 138 74 90 119 142
192 188 198 195 204 196 198 194 203 206 211 203 208 210 207 209 200 197 190 196 201 198 206 203 203 180 184 214 126 132 154 172 184 189 190 180 172 164 146 151 150 161 182 224 298 318 323 311 311 342 19 11 313 269 312 303 345 112 152 176 209 104 310 247 248 270 303 40 347 318 29 16 10 11 1 353 351 8 360 81 75 45 36 113 133
198 180 194 194 201 203 201 196 197 207 212 214 206 213 210 209 207 205 230 199 193 189 201 212 210 198 188 186 179 192 166 175 170 182 192 168 186 136 133 138 152 181 212 243 247 343 325 337 8 360 312 272 285 8 354 340 340 340 323 296 21 29 292 324 264 276 312 355 321 347 29 18 10 355 338 334 337 354 324 33 72 43 87 111 338
231 177 182 202 202 204 202 203 199 202 210 215 217 212 211 202 203 209 213 214 201 196 183 190 201 221 230 216 172 184 156 152 173 175 179 183 168 159 164 168 156 190 229 235 210 131 21 17 330 284 328 336 352 340 332 342 340 343 335 28 44 33 349 303 296 33 315 300 34 17 20 2 353 313 328 340 2 342 319 55 99 127 185 82 170
145 289 185 197 206 210 203 206 207 203 208 211 216 216 215 207 198 206 217 214 206 197 187 195 206 205 214 195 209 119 181 162 125 238 202 170 178 169 155 163 179 213 250 271 31 44 27 326 268 332 356 323 331 341 348 341 348 331 8 30 44 17 317 274 280 250 283 347 38 41 352 337 319 308 358 346 358 10 11 60 58 38 42 42 30
212 203 226 195 205 209 214 203 211 209 210 216 212 214 215 216 203 202 212 214 206 204 199 205 212 201 194 204 203 164 130 159 176 209 190 164 145 143 150 170 194 203 297 30 56 82 170 259 9 321 258 317 331 338 346 340 346 357 16 348 3 339 311 309 13 343 353 318 18 32 6 7 341 36 13 9 23 18 15 45 56 61 55 47 34
235 197 199 211 201 208 214 230 211 206 196 217 221 222 223 216 221 209 194 213 212 211 219 202 200 219 191 191 250 106 100 111 133 130 148 117 147 148 152 136 88 56 55 67 108 144 190 111 340 340 4 19 26 19 11 6 354 357 9 357 338 345 329 336 1 322 127 79 63 29 45 32 29 28 9 13 28 27 10 41 29 52 75 56 39
232 208 193 205 219 204 210 226 239 233 201 198 228 215 219 221 215 222 201 193 215 218 220 221 197 199 200 160 113 110 115 128 124 147 133 135 154 146 95 70 49 57 66 70 87 90 97 87 76 50 31 40 29 23 31 19 35 37 12 350 351 336 321 357 286 237 73 74 56 57 48 38 29 27 23 22 23 20 16 19 30 21 36 78 43
205 202 187 189 211 222 214 215 221 239 254 205 215 242 246 252 226 204 210 209 203 208 216 228 228 182 195 118 86 99 106 98 59 22 192 167 162 127 104 98 115 108 102 94 60 69 48 47 59 76 75 76 72 72 70 69 61 44 17 5 23 25 31 44 48 56 69 69 66 54 53 45 32 19 27 26 25 7 14 8 24 15 2 37 41
199 198 196 187 190 195 156 94 70 348 301 250 214 211 184 4 331 163 173 164 184 187 194 232 252 229 108 106 118 103 75 61 43 42 42 26 346 90 107 97 89 67 49 60 85 75 115 92 72 79 77 75 74 76 76 71 67 64 48 29 26 58 66 72 59 54 64 64 54 52 53 42 33 21 28 26 14 13 17 17 18 359 357 3 47
217 203 212 186 174 147 153 170 120 168 350 309 130 68 66 31 336 9 55 70 73 72 58 44 36 57 97 108 105 106 88 58 34 28 28 24 13 36 118 101 89 103 104 103 113 113 95 85 84 79 76 75 76 77 74 72 70 67 64 60 55 49 57 65 60 53 57 61 53 53 50 48 35 19 27 15 3 12 355 359 5 354 -0 348 343
55 32 5 321 312 202 197 188 175 171 24 353 350 57 59 151 294 321 224 175 116 123 121 105 79 102 103 103 97 91 81 57 49 43 33 11 15 341 111 115 121 110 112 107 105 103 103 92 75 78 87 82 74 67 74 73 72 72 69 65 61 55 50 54 70 65 62 69 63 49 52 43 32 22 17 8 353 355 357 355 10 353 347 350 325
96 179 225 223 229 213 184 185 176 150 95 53 24 36 23 352 334 275 222 210 148 170 153 121 129 112 117 115 105 100 101 74 72 53 43 7 310 104 87 84 78 76 81 87 88 85 86 88 83 72 71 83 79 70 71 77 76 74 71 72 70 67 61 56 56 71 77 77 73 60 44 37 36 17 11 356 345 6 350 3 358 354 348 352 9
116 158 323 266 259 233 204 176 168 164 142 85 45 55 96 204 15 325 323 1 14 324 159 128 87 96 116 110 99 98 91 85 84 66 43 105 105 99 94 86 86 83 81 82 83 82 84 90 94 88 84 80 84 85 82 79 75 68 65 59 59 62 66 67 70 71 73 73 75 73 53 48 45 23 12 5 13 3 351 6 355 353 350 351 57
7 270 235 231 219 221 192 200 186 191 159 124 81 88 122 134 183 185 14 344 64 51 10 333 95 112 114 110 106 99 94 96 86 91 94 89 90 89 89 92 88 82 78 79 85 90 88 93 97 100 94 89 91 92 88 82 79 78 72 70 69 72 65 60 58 59 62 74 80 81 77 60 55 41 24 22 19 12 349 13 353 347 334 351 63
198 235 236 234 218 215 206 196 207 175 121 137 161 177 162 190 155 109 107 297 124 134 171 133 83 75 88 105 105 103 88 73 89 100 113 109 102 102 99 98 97 95 92 90 99 97 97 97 97 98 96 99 107 111 110 106 96 89 87 85 81 72 77 85 88 74 72 73 73 86 88 83 74 52 38 26 20 9 0 10 15 13 7 12 18
167 203 272 258 214 219 213 195 166 78 89 117 144 176 155 122 106 117 131 242 152 126 125 110 106 101 99 101 107 105 99 70 83 74 80 105 106 108 109 100 90 80 68 52 49 89 101 100 103 103 100 87 46 98 111 112 110 115 115 110 106 103 101 87 93 104 102 93 100 100 119 118 83 64 44 29 21 11 8 22 25 9 8 11 11
170 176 239 266 219 150 191 201 118 157 129 142 159 142 123 104 107 151 162 172 133 114 108 97 83 84 96 103 108 106 91 69 86 89 90 86 97 108 109 105 94 87 77 57 56 60 87 94 83 71 60 40 31 21 102 95 89 91 91 105 123 133 134 137 120 72 119 140 146 163 168 200 155 81 53 33 22 21 31 28 14 8 14 18 7
168 167 178 156 232 216 164 17 37 36 129 138 136 139 138 125 136 139 141 125 117 102 85 86 82 74 83 97 95 95 90 73 77 81 85 88 92 102 104 104 103 99 96 89 81 76 60 57 71 74 76 64 57 51 53 121 115 102 96 79 66 56 47 55 81 115 118 106 105 133 148 81 52 39 49 39 27 26 34 23 22 19 17 12 4
103 78 57 45 46 58 65 73 62 82 78 91 98 105 116 121 132 130 126 109 99 94 98 100 98 89 75 72 80 92 86 56 74 88 89 90 94 99 103 107 109 107 102 94 86 75 71 69 64 73 71 68 66 62 58 56 58 49 46 53 75 81 69 52 61 67 66 57 48 33 42 53 50 40 43 42 26 18 17 24 20 25 22 358 8
100 109 118 115 92 73 59 76 78 78 92 97 106 105 108 114 113 111 108 107 104 98 100 100 97 94 85 83 81 61 83 92 77 89 93 98 102 107 104 104 107 107 101 93 86 86 82 72 67 74 75 71 68 65 62 57 59 57 51 55 44 53 52 44 51 53 45 53 48 35 37 40 40 30 25 30 33 17 13 21 10 20 359 8 348
67 71 76 68 63 63 66 72 75 85 92 93 81 84 87 94 96 100 111 116 109 104 106 104 101 94 85 85 79 84 79 88 103 89 89 88 95 106 109 106 108 109 102 93 87 84 89 84 72 76 74 71 70 68 63 58 55 61 53 47 44 60 56 51 39 43 50 45 50 47 37 41 39 33 23 24 32 20 9 9 3 353 354 340 349
89 80 78 79 77 77 81 86 92 93 85 93 103 107 110 108 106 100 100 99 98 99 96 100 98 97 95 83 84 86 87 88 92 89 89 88 85 81 89 95 92 96 101 101 100 103 99 95 89 83 77 71 67 64 64 62 58 58 62 54 42 47 55 39 37 37 47 51 49 50 46 39 37 29 24 16 34 24 7 3 349 354 352 347 346
112 107 101 100 100 100 103 105 107 108 102 98 106 111 112 110 109 113 120 118 118 113 111 109 105 102 99 95 93 89 82 75 82 90 90 89 88 90 90 91 96 102 101 104 106 105 105 98 96 90 87 86 84 82 79 76 73 66 60 66 64 52 47 47 38 42 47 51 51 45 47 50 40 31 23 21 39 27 7 3 348 357 346 344 342
109 105 104 103 104 104 101 103 102 105 110 113 112 110 112 109 108 118 119 114 112 113 115 109 106 107 102 103 102 94 84 80 78 81 88 89 93 95 93 91 91 99 103 105 107 110 113 113 107 105 104 104 102 98 94 95 95 88 82 69 62 55 52 45 36 28 43 40 41 36 25 41 40 13 359 44 45 46 7 7 347 355 343 353 336
106 104 103 102 102 103 104 104 104 108 112 117 121 125 119 118 118 114 112 109 114 115 115 114 114 113 116 114 108 105 103 99 96 94 90 86 84 86 87 89 93 95 103 113 119 125 126 126 128 130 130 126 113 113 115 117 105 84 72 68 74 68 56 49 36 38 37 39 35 36 14 9 33 342 13 52 39 55 18 6 355 360 347 351 334
105 103 102 106 107 111 112 115 116 116 115 115 120 119 123 126 124 119 118 122 121 123 123 124 118 117 126 126 123 119 117 113 109 107 104 100 98 98 96 95 101 105 105 118 127 135 142 145 158 177 158 152 137 129 136 147 94 78 73 60 52 58 81 70 46 34 40 34 37 31 11 357 18 357 20 34 15 59 23 16 6 359 345 344 342
112 111 112 111 108 104 99 99 103 96 87 87 102 122 134 135 129 115 119 127 133 128 130 131 130 134 136 137 133 132 130 129 128 129 123 117 115 111 112 119 123 131 135 148 150 155 162 166 158 165 141 139 142 149 128 104 97 97 86 81 64 42 35 48 67 50 34 36 44 27 14 14 30 358 16 35 357 51 30 7 18 350 353 348 9
127 127 122 117 112 120 114 112 103 98 91 78 61 31 358 7 47 69 29 350 129 142 142 133 136 139 142 143 145 139 138 139 144 125 124 129 127 128 133 143 149 160 155 146 136 111 116 147 163 160 170 191 172 137 140 116 85 70 70 69 67 62 43 9 13 37 24 26 42 27 21 17 26 356 11 29 355 31 27 7 27 7 353 8 17
100 95 105 117 128 121 113 103 104 107 106 104 95 71 53 50 23 30 51 7 343 280 37 134 141 147 141 138 142 141 137 125 117 116 125 133 142 147 142 146 159 144 129 129 131 144 152 194 195 187 176 110 75 64 61 71 90 96 91 75 66 58 46 29 6 9 20 19 48 24 18 25 15 353 11 34 349 27 20 17 29 11 1 11 15
147 161 152 157 124 118 125 121 116 107 104 105 98 98 92 60 47 35 37 43 53 73 86 84 87 90 105 92 82 94 107 111 111 115 115 122 127 126 125 110 89 90 90 81 287 211 198 188 124 131 114 83 77 82 76 66 51 48 70 77 65 58 52 31 1 342 16 14 48 23 13 28 9 354 11 39 3 30 18 25 33 14 11 11 14
156 104 86 82 101 116 117 116 119 116 117 115 110 110 100 89 57 38 40 58 58 61 77 91 97 101 107 112 108 85 97 107 113 117 125 126 117 103 95 96 98 88 65 88 294 248 85 64 55 55 66 82 75 67 67 72 65 53 40 62 72 66 57 42 9 351 6 34 38 21 10 33 6 350 11 39 10 23 26 16 27 26 16 17 10
104 102 89 92 97 106 118 124 126 129 127 126 128 123 111 103 98 96 59 57 63 62 56 68 88 100 102 99 107 117 124 120 116 119 119 112 106 104 98 90 89 82 45 298 258 74 112 144 160 111 91 96 83 71 68 60 67 62 54 59 71 69 66 56 33 359 353 48 46 18 4 39 12 347 11 37 23 13 29 13 32 26 23 19 6
105 107 114 116 114 115 124 129 130 131 137 139 135 125 120 117 123 117 104 97 73 59 54 50 64 82 84 103 110 112 113 114 116 118 116 114 113 110 106 110 130 150 178 284 314 199 220 83 73 66 70 71 75 83 77 77 82 65 52 63 67 60 83 69 44 12 337 40 52 19 6 37 15 350 358 36 31 19 28 24 25 15 23 19 3
99 118 121 118 115 124 129 132 137 137 139 141 137 132 122 130 130 120 112 106 100 98 99 62 30 51 93 95 105 110 114 116 120 124 123 121 116 117 115 129 189 193 181 223 347 53 67 67 64 56 48 57 65 47 64 85 83 73 57 62 76 47 57 72 47 7 338 36 58 18 346 33 25 358 355 27 28 18 26 21 17 21 21 12 360
117 119 126 128 129 124 118 118 127 134 138 135 132 128 136 138 127 117 113 107 109 111 104 83 91 71 79 78 87 94 98 104 113 119 124 122 132 133 147 170 207 129 72 52 53 65 63 69 68 63 70 81 65 118 207 74 81 85 69 55 48 80 54 74 44 9 336 35 65 16 339 16 28 354 12 44 25 13 21 19 11 19 20 12 349
136 139 141 138 131 125 119 125 131 132 126 124 129 137 142 132 123 125 121 119 116 117 114 126 125 105 86 77 83 78 81 92 90 83 76 66 34 356 299 282 209 107 96 79 67 68 81 77 83 110 150 154 196 65 93 104 100 108 118 132 137 77 83 82 47 36 357 25 61 36 339 43 356 2 39 36 23 9 18 20 17 9 8 359 6
149 157 148 137 119 119 134 131 128 122 123 130 137 140 128 125 131 127 125 124 128 129 131 133 127 124 124 120 127 113 102 99 90 72 61 54 51 245 262 276 85 99 102 103 104 99 91 91 107 119 81 56 35 69 66 79 73 48 29 104 119 120 106 112 57 32 30 40 35 7 5 31 345 9 46 40 17 6 12 26 21 4 352 3 8
103 93 99 103 120 131 128 131 141 141 138 146 149 139 132 138 135 132 130 130 138 137 140 141 139 139 133 138 132 135 131 140 158 156 158 170 181 223 276 272 122 107 102 94 87 95 121 131 113 67 48 41 65 60 55 59 96 92 281 27 62 64 64 65 67 32 28 28 57 332 47 48 350 17 58 21 12 349 5 30 17 12 360 347 336
119 121 118 127 137 126 134 149 160 146 150 157 153 146 142 149 139 138 145 149 151 150 153 152 152 145 145 153 150 161 166 158 164 165 170 176 187 204 224 242 124 116 123 134 143 136 148 100 88 92 90 338 96 85 93 14 89 150 155 75 63 56 74 85 72 42 24 28 39 326 61 63 320 59 70 23 341 318 21 17 20 358 0 342 350
143 132 137 158 142 136 147 164 164 160 158 166 148 156 154 153 147 140 148 148 154 156 160 165 162 146 155 163 164 173 167 167 170 170 177 184 191 200 196 197 143 145 146 152 146 169 146 118 127 122 203 129 112 141 137 127 346 285 92 113 103 62 56 93 75 47 340 63 60 321 37 74 306 81 76 296 300 347 10 26 11 12 355 349 350
143 143 159 168 137 157 157 177 161 166 167 161 161 164 149 171 150 155 157 152 155 160 162 179 148 149 154 158 171 189 189 174 187 173 177 185 194 190 196 164 145 157 150 144 150 123 111 128 140 193 134 98 115 68 10 97 54 359 89 85 75 63 40 70 90 53 340 58 92 286 53 9 301 219 115 64 15 359 354 13 15 4 4 355 358
141 153 168 160 166 179 161 181 156 160 178 168 166 166 158 160 172 171 158 151 157 166 171 175 140 150 155 166 176 192 218 203 191 175 175 175 196 200 191 146 162 142 119 110 107 108 119 106 235 141 107 81 56 64 73 82 59 353 67 79 79 73 65 47 72 73 7 358 42 306 91 302 314 305 91 74 29 359 8 25 8 7 1 358 2
141 158 168 160 180 186 158 180 164 166 177 167 161 181 152 183 190 161 162 167 163 177 176 169 144 152 156 171 175 187 212 219 186 187 188 185 198 196 181 161 153 140 117 120 120 127 128 188 165 87 84 84 73 41 40 58 53 62 40 80 94 62 74 73 74 43 33 348 352 2 28 326 319 3 39 48 31 4 14 19 3 13 360 354 345
153 162 174 173 178 197 162 177 184 161 181 190 163 174 160 190 189 197 169 177 170 182 182 177 154 151 158 166 177 188 201 208 201 186 198 209 202 185 173 142 127 120 130 134 132 126 180 220 115 108 106 98 98 96 64 48 44 47 47 43 80 94 83 70 59 72 51 336 329 5 27 359 310 45 37 4 10 27 5 15 1 3 347 351 332
164 169 176 182 176 192 192 173 194 184 172 191 181 181 177 188 186 187 213 191 167 183 188 145 145 156 162 172 179 192 196 210 204 198 198 201 191 188 171 147 134 128 134 143 130 177 194 97 102 103 103 107 116 105 96 82 70 68 67 64 68 78 79 83 69 29 34 15 327 344 45 303 321 67 57 34 13 9 17 356 8 357 348 332 328
184 173 171 187 183 185 204 182 181 206 191 186 183 185 182 189 186 191 198 202 163 179 147 149 157 162 166 171 179 185 194 202 214 202 189 194 188 165 119 118 131 141 149 142 151 154 92 90 97 113 116 125 114 110 132 136 127 114 92 65 65 54 40 6 13 32 17 8 345 33 19 289 332 347 29 39 351 4 4 7 8 346 339 327 313
206 206 187 178 183 185 193 199 191 198 213 195 198 192 181 188 192 188 193 191 170 181 178 152 163 162 169 172 177 185 188 203 212 188 173 187 172 137 130 134 135 151 148 136 136 136 132 118 100 104 97 85 102 146 124 130 130 101 81 77 70 73 42 27 48 38 20 350 336 319 283 281 334 29 24 12 343 5 346 21 357 349 328 321 310
201 205 208 191 191 185 186 191 198 194 207 204 193 209 221 197 192 188 179 181 183 178 186 169 163 172 169 173 178 188 193 208 196 157 165 164 149 140 146 149 157 157 164 157 138 109 98 104 113 112 111 128 124 122 139 122 108 101 104 100 94 87 74 62 59 33 353 336 331 319 307 268 68 62 12 340 356 355 4 6 348 328 309 301 289
209 205 209 199 198 202 186 188 194 197 196 205 201 200 206 225 208 186 167 175 175 179 177 194 170 165 174 169 178 189 191 198 177 154 158 156 156 144 152 154 151 155 156 141 119 115 119 117 117 120 123 152 164 154 155 135 105 115 114 119 121 111 105 95 79 47 22 1 342 313 316 314 72 48 28 347 359 352 354 347 323 307 291 286 302
208 210 211 206 196 199 200 192 192 197 192 200 206 204 197 213 231 204 181 171 169 173 183 191 198 172 175 182 178 181 179 171 161 172 163 172 179 159 140 139 138 128 119 114 121 126 129 139 144 159 175 179 154 175 141 116 124 129 131 134 125 116 102 78 80 60 36 358 313 314 302 345 36 334 5 7 1 325 347 312 292 287 290 309 332